This is the latest recevied weather packets stored in our database for station/object KC2WGU. If no packets are shown the sender has not sent any weather packets the latest 10 day(s).
| Time | Temp. | Humidity | Pressure | Rain* | Wind** | Luminosity | Snow |
|---|---|---|---|---|---|---|---|
| 1787998817 | 10.56° C | 94% | 1021.8 hPa | 0 mm | - | 0 W/m² | - |
| 1787998218 | 10.56° C | 94% | 1021.8 hPa | 0 mm | - | 0 W/m² | - |
| 1787997616 | 10.56° C | 94% | 1021.7 hPa | 0 mm | - | 0 W/m² | - |
| 1787997017 | 10.56° C | 94% | 1021.6 hPa | 0 mm | - | 0 W/m² | - |
| 1787996416 | 10.56° C | 94% | 1021.6 hPa | 0 mm | - | 0 W/m² | - |
| 1787995817 | 10.56° C | 93% | 1021.6 hPa | 0 mm | - | 0 W/m² | - |
| 1787995217 | 11.11° C | 94% | 1021.3 hPa | 0 mm | - | 0 W/m² | - |
| 1787994616 | 10.56° C | 93% | 1021.3 hPa | 0 mm | - | 0 W/m² | - |
| 1787994017 | 10.56° C | 91% | 1021.3 hPa | 0 mm | - | 0 W/m² | - |
| 1787993416 | 11.11° C | 90% | 1021.3 hPa | 0 mm | - | 0 W/m² | - |
| 1787992816 | 11.67° C | 90% | 1021.1 hPa | 0 mm | - | 0 W/m² | - |
| 1787992216 | 12.22° C | 89% | 1021.1 hPa | 0 mm | - | 0 W/m² | - |
| 1787991617 | 12.78° C | 89% | 1021 hPa | 0 mm | - | 0 W/m² | - |
| 1787991017 | 12.78° C | 89% | 1021 hPa | 0 mm | - | 0 W/m² | - |
| 1787990417 | 13.33° C | 89% | 1020.9 hPa | 0 mm | - | 0 W/m² | - |
| 1787989816 | 13.33° C | 89% | 1020.9 hPa | 0 mm | - | 0 W/m² | - |
| 1787989217 | 13.33° C | 90% | 1020.9 hPa | 0 mm | - | 0 W/m² | - |
| 1787988617 | 12.78° C | 91% | 1020.9 hPa | 0 mm | - | 0 W/m² | - |
| 1787988016 | 12.78° C | 91% | 1020.8 hPa | 0 mm | - | 0 W/m² | - |
| 1787987416 | 12.78° C | 91% | 1020.7 hPa | 0 mm | - | 0 W/m² | - |
| 1787986816 | 12.78° C | 91% | 1020.8 hPa | 0 mm | - | 0 W/m² | - |
| 1787986218 | 12.22° C | 91% | 1020.7 hPa | 0 mm | - | 0 W/m² | - |
| 1787985616 | 12.22° C | 91% | 1020.7 hPa | 0 mm | - | 0 W/m² | - |
| 1787985016 | 12.22° C | 91% | 1020.6 hPa | 0 mm | - | 0 W/m² | - |
| 1787984419 | 12.22° C | 91% | 1020.5 hPa | 0 mm | - | 0 W/m² | - |
* Rain latest hour (hover to see other rain measurements)
** Current wind speed in m/s (hover to see current wind gust speed)